RH
22 21 25 34 40 43 47 51 54 56 65 78 94 96 96 96 97 93 86 81 82 85 89 91 94 93 76 62 68 72 77 82 68 78 80 77 68 61 60 57 54 59 59
31 26 27 32 43 44 44 48 51 56 67 76 81 79 84 87 85 90 87 84 83 83 86 91 90 93 89 79 78 81 84 79 74 68 72 94 81 68 63 59 54 54 57
42 39 30 31 37 47 46 48 51 56 66 70 78 75 84 89 93 91 87 83 82 86 85 81 85 81 87 88 87 84 84 86 75 65 64 94 89 84 64 64 58 58 58
43 50 64 43 43 50 55 55 54 59 67 74 80 83 83 88 86 78 78 80 78 83 85 79 72 74 72 84 84 83 84 76 83 73 64 56 62 76 79 65 61 59 58
46 61 65 74 72 70 69 64 62 65 72 80 78 76 75 65 61 67 70 82 78 75 83 79 76 74 74 72 80 86 86 74 72 78 69 65 58 53 57 66 68 64 62
38 50 55 63 78 80 74 73 71 70 70 80 74 73 72 67 66 69 72 78 85 84 82 82 80 72 69 68 70 76 78 80 66 70 68 66 63 59 56 54 61 65 63
30 36 45 55 66 81 78 76 73 76 72 73 73 71 72 68 67 67 68 70 79 87 87 84 85 80 74 68 65 70 77 79 74 75 63 56 51 49 48 43 56 58 60
28 33 37 45 58 70 81 77 73 74 74 75 79 77 74 76 71 68 68 68 75 82 82 86 83 78 74 71 64 65 68 79 80 78 66 57 50 48 45 42 51 56 61
26 29 35 39 46 63 77 78 78 71 75 77 80 85 86 86 81 77 72 79 80 81 85 88 86 82 76 75 75 65 63 67 73 76 70 62 54 51 44 44 45 45 51
25 25 28 38 40 49 65 80 79 83 78 80 81 83 83 89 89 85 82 78 78 83 86 88 89 89 82 81 74 68 68 68 69 76 72 63 57 58 53 51 48 46 50
27 26 26 33 33 38 53 66 80 83 88 90 89 91 90 85 88 84 82 86 83 84 89 90 89 90 88 87 81 66 73 62 65 69 67 62 58 56 54 54 53 54 52
29 27 27 30 33 33 39 52 69 85 89 87 91 91 90 85 83 82 87 88 84 83 88 89 91 87 86 80 77 73 68 68 69 69 63 62 58 62 57 56 61 58 54
31 30 28 29 32 31 31 38 56 74 85 86 92 95 94 93 87 81 84 87 83 81 76 81 84 87 80 67 58 61 65 63 60 63 63 62 65 66 66 64 62 63 55
32 33 29 29 29 29 31 32 42 57 76 84 90 96 96 93 91 81 79 86 84 82 83 77 78 84 78 70 64 60 60 57 55 59 60 62 64 65 68 69 67 64 64
34 34 36 36 33 30 30 31 33 43 56 83 89 94 94 93 90 86 83 88 90 86 86 86 80 86 83 71 68 67 64 64 61 63 64 63 68 77 69 68 67 68 70
42 43 43 41 39 36 34 30 31 35 50 82 90 91 96 95 95 90 90 90 91 88 85 86 84 81 81 84 86 79 78 76 74 75 72 69 86 83 84 81 80 71 71
53 52 50 47 45 43 41 38 32 31 50 82 86 91 97 96 96 95 94 91 91 93 89 86 83 78 75 88 88 86 77 78 76 75 77 76 75 82 74 86 87 86 84
56 56 54 52 52 47 43 36 32 30 51 80 82 89 92 95 96 96 96 94 96 96 96 90 86 86 81 89 88 88 77 79 78 77 77 77 74 78 78 75 80 78 77
59 56 56 56 55 52 48 40 34 29 50 74 80 87 90 93 99 98 95 94 91 89 94 96 93 92 90 95 93 85 86 86 83 80 79 79 80 86 90 85 90 86 90
56 60 60 60 57 52 50 47 38 31 47 71 77 80 84 90 97 99 99 98 97 96 93 98 98 96 96 99 99 94 96 98 96 98 94 96 91 97 97 95 95 98 95
55 59 61 64 60 54 50 55 46 37 46 70 73 77 79 85 90 95 99 99 99 99 99 99 99 99 99 99 99 99 98 96 98 98 99 98 99 99 99 97 97 96 97
60 62 67 67 63 52 51 55 48 37 60 71 74 76 78 78 81 90 92 98 99 98 99 98 99 99 99 99 99 99 98 98 98 99 99 99 100 100 99 99 97 97 97
64 63 64 65 69 77 83 75 64 69 70 73 76 73 74 78 78 80 87 89 93 95 98 98 98 99 99 99 99 99 100 99 99 99 99 100 100 99 99 99 99 99 99
73 71 67 67 70 76 76 81 81 83 77 82 80 76 76 79 82 84 85 89 92 97 98 97 97 97 98 98 97 97 97 96 96 96 96 96 96 95 97 98 98 99 99
84 79 80 77 75 73 75 74 83 86 92 85 83 80 82 87 94 95 94 96 97 96 97 98 98 97 97 98 94 92 92 92 92 90 89 90 94 97 98 98 98 98 97
89 87 86 84 85 81 80 79 83 90 96 90 85 85 87 90 92 95 96 97 97 97 97 96 94 94 95 95 94 94 93 90 87 86 93 97 96 97 97 98 98 98 98
Wind_Speed
17 17 15 13 12 10 11 13 13 15 12 10 8 6 5 5 4 5 9 11 9 10 10 7 8 4 7 10 12 9 11 7 10 7 6 4 3 6 5 5 6 6 6
16 17 16 13 12 12 12 13 16 15 14 11 10 7 8 6 8 6 7 10 12 14 12 12 11 10 7 7 9 10 7 5 8 8 7 3 2 4 4 5 6 8 5
15 15 14 14 13 12 12 13 15 17 16 15 10 7 6 5 4 7 8 10 11 12 13 15 12 14 11 9 8 9 11 6 10 11 6 4 4 3 5 7 6 7 6
13 12 13 8 8 7 8 10 13 15 15 16 14 17 11 9 8 10 10 10 13 12 13 14 17 17 13 12 11 8 9 10 10 7 2 5 7 6 4 7 8 7 7
14 14 14 8 5 0 5 8 11 14 15 15 16 14 14 13 11 11 14 12 13 14 14 15 17 16 13 16 15 15 12 8 11 7 5 4 4 5 3 5 7 7 7
16 15 14 14 9 5 4 6 10 12 14 14 16 17 17 13 11 12 12 10 8 10 13 14 14 17 17 17 16 15 17 17 10 11 7 7 5 6 4 2 3 7 8
17 18 19 17 14 12 5 4 8 10 12 14 14 15 14 14 15 13 11 13 11 10 13 16 14 13 15 17 17 17 15 14 16 13 10 9 10 6 4 3 3 2 3
17 18 18 16 16 15 13 3 6 8 9 10 11 11 12 9 10 12 11 10 10 12 14 15 15 16 17 16 16 14 14 14 11 15 14 10 10 7 7 4 4 3 2
18 19 18 16 16 16 15 14 4 7 9 10 9 10 9 10 11 12 12 9 11 11 16 18 19 19 19 17 15 12 16 16 15 13 13 11 9 8 7 6 6 1 1
19 18 18 17 15 14 13 13 13 10 6 8 8 8 9 10 9 9 12 14 13 12 13 15 16 15 14 14 15 13 13 15 13 11 13 13 9 6 6 7 6 3 3
18 17 17 16 16 14 15 15 15 14 11 3 6 7 8 10 8 7 8 9 10 10 11 13 13 12 12 11 10 14 11 17 14 12 15 15 14 9 8 7 6 5 5
17 16 16 16 17 17 16 15 15 13 12 11 6 8 8 8 8 7 7 7 10 10 10 10 11 14 14 16 16 14 14 16 15 13 15 16 10 14 12 9 8 7 7
18 17 16 16 16 17 17 15 15 15 13 12 9 6 8 8 9 10 8 7 7 8 11 13 13 12 14 16 18 16 15 16 15 16 16 14 15 15 9 9 9 7 6
18 17 17 16 16 16 16 16 15 14 14 14 10 6 8 9 8 9 9 9 8 8 7 9 11 12 12 15 16 17 17 16 16 15 16 14 16 14 12 10 10 8 8
21 20 20 18 18 17 16 16 17 16 15 14 12 8 7 8 8 9 9 8 9 9 8 8 10 9 9 9 14 13 13 14 15 13 13 13 13 13 11 8 10 9 8
23 23 22 21 19 18 17 17 17 18 16 14 13 11 5 7 10 10 9 8 7 8 11 11 11 11 8 12 13 10 9 9 10 11 10 9 9 9 11 13 10 11 11
23 24 23 21 19 18 17 17 17 17 15 14 13 11 6 6 8 8 10 11 10 7 9 10 9 10 11 15 17 16 11 11 11 11 10 9 7 11 11 12 11 11 12
23 23 21 21 20 18 17 16 14 14 15 13 12 11 9 2 7 9 9 9 8 8 7 10 11 9 8 16 17 16 10 9 10 10 11 11 12 12 10 9 10 11 10
20 21 21 22 20 18 15 15 14 13 13 13 11 11 10 7 3 7 9 7 8 9 8 6 9 11 10 13 15 15 9 8 9 8 9 9 8 10 12 9 9 9 7
19 20 22 21 19 16 13 13 13 12 12 12 12 11 9 6 4 3 4 5 6 7 6 7 6 8 8 15 16 12 6 8 6 6 6 9 8 11 12 8 7 6 6
19 19 19 18 18 14 12 12 11 12 11 12 11 9 6 6 5 3 3 1 4 5 5 5 4 5 5 8 15 14 8 7 6 6 5 5 10 12 12 11 9 7 5
23 23 19 18 16 12 11 13 12 13 11 10 10 8 6 4 3 4 4 4 4 7 6 7 5 4 4 4 9 14 8 9 5 4 3 4 10 9 10 8 6 7 5
20 19 19 19 17 16 14 12 14 13 11 8 8 7 4 3 4 5 5 4 5 4 5 5 5 4 3 4 8 10 10 9 4 4 7 9 8 8 6 5 6 6 3
17 18 19 19 17 16 16 13 14 14 10 7 5 5 3 2 5 4 4 4 4 5 4 6 6 4 5 4 5 5 8 13 9 10 7 8 9 8 7 4 2 2 3
15 15 16 16 18 17 16 15 14 14 8 5 4 6 4 5 7 6 5 5 5 4 4 5 4 6 5 3 7 7 5 6 8 8 6 5 4 5 4 4 4 4 4
15 14 16 16 17 17 15 16 14 13 8 4 5 6 4 5 6 7 9 19 15 17 17 15 10 8 13 16 16 16 16 14 11 7 6 6 5 5 4 5 5 5 5
Wind_Direction
300 288 276 259 251 229 216 213 207 205 191 185 174 188 171 160 155 165 172 179 172 164 161 150 143 166 182 192 181 179 171 170 174 119 111 98 173 176 169 172 166 155 151
317 301 273 262 243 238 221 214 212 202 192 184 185 186 174 182 178 167 169 173 174 174 166 158 163 153 153 186 170 174 166 165 178 170 148 149 177 213 195 193 187 176 164
323 317 293 267 255 238 226 213 206 201 190 186 181 185 141 139 146 175 187 192 180 175 173 173 171 172 167 170 176 180 177 169 194 172 151 150 194 154 201 211 203 194 189
343 335 328 293 252 233 212 204 200 195 188 184 181 176 180 174 190 193 194 196 195 187 185 182 185 183 181 173 176 173 199 186 192 189 311 203 139 188 189 219 217 216 213
359 358 344 352 13 12 200 194 191 188 183 188 187 188 195 206 195 202 199 200 204 200 192 191 185 184 185 187 182 173 178 221 187 203 155 181 167 216 204 192 201 216 218
11 12 4 3 16 35 118 170 180 187 182 187 193 195 202 202 199 199 201 190 197 198 199 201 196 192 187 191 188 196 193 175 212 192 197 176 171 177 186 183 185 225 205
13 14 11 6 3 1 84 143 175 181 186 190 193 200 204 206 210 204 205 199 200 197 200 196 196 197 197 193 194 189 199 204 177 195 202 207 205 180 168 159 127 180 170
12 11 11 6 3 4 3 139 163 168 183 191 201 209 211 212 216 216 215 213 202 203 201 203 201 198 200 197 201 193 192 188 194 191 198 208 200 190 170 161 164 154 157
7 6 7 9 5 5 2 2 252 178 181 194 198 204 206 210 216 220 225 217 211 206 202 199 203 205 200 195 187 198 193 189 190 196 187 206 205 196 181 166 199 224 177
360 2 3 7 5 1 358 3 7 353 192 196 205 217 216 208 215 218 228 233 230 218 208 207 204 198 193 191 191 196 193 194 193 193 189 197 196 191 181 175 195 207 234
352 355 356 358 6 4 4 2 4 3 2 278 203 204 209 213 209 222 245 227 210 188 187 189 180 179 173 175 185 198 192 201 198 189 191 205 203 200 192 188 193 180 189
347 350 354 353 1 5 5 3 355 352 351 332 250 215 210 219 218 222 208 198 199 181 176 180 183 189 182 183 189 198 195 198 191 195 194 201 199 208 204 196 200 202 200
348 348 353 355 355 356 357 359 354 345 341 335 323 206 201 198 206 215 193 166 179 184 187 187 182 185 190 188 197 195 197 197 196 190 203 196 193 205 197 198 205 205 204
347 344 349 348 346 346 347 348 346 342 337 332 319 252 199 195 195 205 202 175 164 164 174 192 188 183 192 198 197 195 201 198 201 195 199 197 194 202 194 196 203 204 209
339 340 335 332 329 332 336 339 337 337 336 329 321 305 195 191 184 188 185 177 183 164 164 170 190 183 193 199 196 196 193 200 200 194 199 200 195 196 193 187 199 195 202
333 330 328 325 324 326 326 328 329 330 327 330 323 316 211 181 190 196 191 188 194 179 167 178 189 181 183 182 179 172 178 188 187 188 191 191 180 185 189 192 191 189 195
328 325 323 320 318 317 318 316 319 322 323 324 324 320 291 181 183 187 195 204 209 196 197 178 177 198 195 172 175 174 182 183 188 186 182 184 188 190 197 201 196 200 205
327 322 319 317 313 309 307 305 311 316 318 320 324 328 334 262 178 179 193 189 183 187 189 192 183 181 195 177 185 178 186 188 190 191 186 184 187 190 186 191 200 211 209
322 317 316 312 307 303 295 298 306 313 317 320 324 326 333 337 279 191 195 186 187 190 185 196 191 192 188 181 169 168 175 174 183 188 185 179 178 173 173 180 188 199 218
326 324 319 314 306 304 299 292 296 305 307 320 318 322 330 349 357 347 179 196 189 192 186 193 185 187 173 168 168 174 166 168 176 177 181 173 177 164 177 183 181 198 212
330 328 323 318 307 306 293 288 291 288 299 311 305 307 331 350 6 2 5 94 133 118 117 107 100 155 175 164 166 173 171 168 172 172 176 183 186 177 186 195 180 198 150
342 339 333 332 321 315 308 295 286 291 295 300 295 296 329 352 3 41 44 76 104 116 112 108 86 56 67 134 181 179 171 157 155 163 141 155 174 169 183 189 187 189 160
343 339 337 335 330 338 333 297 299 294 290 278 284 282 297 357 32 62 53 59 83 108 117 112 105 84 37 50 119 132 137 124 101 118 121 122 125 125 140 164 195 197 182
346 342 341 338 334 338 334 332 322 312 278 264 277 261 220 99 74 67 68 65 66 100 113 120 111 97 77 64 76 89 92 90 94 98 94 94 92 87 86 83 99 129 154
344 345 344 340 341 339 338 335 327 318 292 238 220 227 181 120 88 65 64 75 59 64 111 96 106 110 91 64 86 94 95 94 95 101 100 98 84 83 81 72 59 58 62
340 347 345 346 340 345 343 337 329 321 295 257 210 202 174 134 121 109 87 64 76 80 78 76 85 81 91 86 83 90 92 96 103 84 85 75 65 70 73 75 68 49 59